Starlink 30806

operational
NORAD ID: 58180 Int'l Des: 2023-167 Owner: SPXS Country: US Constellation: starlink
LEOCIRCULAR

About Starlink 30806

Description loading...

Live Position

Loading 3D Globe...

Upcoming Passes

Altitude History

Altitude vs Time

uPlot chart will show altitude changes over time

Two-Line Element Set

1 58180U 23167F 25257.38671946 .00000348 00000-0 40814-4 0 9992
2 58180 43.0049 23.9945 0001693 276.7819 83.2831 15.02539910104437
Epoch: Sep 14, 2025 • Age: 29 hours

Current Status

Altitude 562.7 km
Velocity 7.58 km/s
Sub-Earth Point -19.97°S, 151.94°E
Launch Date Oct 30, 2023
Age 1.8 years
Type internet

Technical Details

Classification Payload
Mass 730.00 kg
Dry Mass 700.00 kg
Total Mass 730.00 kg
Length 0.30 m
Diameter 4.10 m
Span 29.00 m
Shape Box + pan
Manufacturer SPXS
Bus Type Starlink V2M
Phase Status In Orbit
Owner/State SPXS/US

Large Constellations

Loading constellations...